Content
SEND FEEDBACK

Daily
Averages
Monthly
Summary
United States of America

ST. LOUIS - SAINT LOUIS UNIVERSITY, MISSOURI


Home > North America > United States > Missouri
Elevation: 177 meters     Latitude: 38 38N     Longitude: 090 14W

WEATHER
 
SELECT A DAY
Number of Records: 186,071;   Date Range: 1/1/95 - 7/27/14
 
SHARE

PRINT THIS DATA

[ ← Previous Day ]
WEATHER ALMANAC - 3 JULY, 2013
[ Next Day → ]
[ °F ]   °C
Weather ElementAverageHighLow
Temperature22 °C27.2 °C (2:53 pm)16.7 °C (3:53 am)
Dewpoint15.6 °C16.7 °C (6:53 pm)14.4 °C (10:53 am)
Humidity69 %93 % (3:53 am)45 % (2:53 pm)
Barometer1017.6 hPa1019 hPa (8:53 am)1016.3 hPa (5:53 pm)
Wind Speed4.7 km/h11.1 km/h (1:53 pm)
Weather ElementAverage
Visibility16.1 km
Wind DirectionESE (113.5 °)

Weather ElementTotal
Precipitation---
Cooling Degree Days3.7 (Base 18.3)
Growing Degree Days12 (Base 10)
Averaged from 23 records on 3 July, 2013
WEATHER CONDITIONS BREAKOUT
WIND DIRECTION BREAKOUT
WEATHER BY HOUR - 3 JULY, 2013
[ °F ]   °C
Local TimeTemperatureDewpointHumidityBarometerVisibilityWind DirectionWind SpeedGust SpeedPrecipitationEventsConditions
1:53 AM17.2 °C15.6 °C90 %1016.9 hPa16.1 kmWSW (250°)5.6 km/hOvercast
2:53 AM17.2 °C15.6 °C90 %1016.6 hPa16.1 kmCalmOvercast
3:53 AM16.7 °C15.6 °C93 %1016.9 hPa14.5 kmCalmMostly Cloudy
4:53 AM16.7 °C15.6 °C93 %1017.3 hPa16.1 kmSW (230°)5.6 km/hOvercast
5:53 AM17.2 °C15.6 °C90 %1017.9 hPa16.1 kmWSW (240°)7.4 km/hOvercast
6:53 AM17.2 °C15.6 °C90 %1018.3 hPa16.1 kmCalmMostly Cloudy
7:53 AM19.4 °C15 °C76 %1018.3 hPa16.1 kmCalmMostly Cloudy
8:53 AM19.4 °C16.1 °C81 %1019 hPa16.1 kmWSW (250°)5.6 km/hPartly Cloudy
9:53 AM21.1 °C15 °C68 %1019 hPa16.1 kmCalmMostly Cloudy
10:53 AM23.3 °C14.4 °C57 %1019 hPa16.1 kmCalmPartly Cloudy
11:53 AM24.4 °C15.6 °C58 %1018.6 hPa16.1 kmWSW (250°)9.3 km/hClear
12:53 PM25.6 °C15 °C52 %1018.3 hPa16.1 kmCalmScattered Clouds
1:53 PM26.1 °C15 °C50 %1017.9 hPa16.1 kmSouth (180°)11.1 km/hScattered Clouds
2:53 PM27.2 °C14.4 °C45 %1017.6 hPa16.1 kmCalmScattered Clouds
3:53 PM27.2 °C14.4 °C45 %1017.3 hPa16.1 kmCalmScattered Clouds
4:53 PM27.2 °C15 °C47 %1016.6 hPa16.1 kmSE (140°)9.3 km/hClear
5:53 PM27.2 °C16.1 °C50 %1016.3 hPa16.1 kmSE (140°)9.3 km/hClear
6:53 PM25.6 °C16.7 °C58 %1016.3 hPa16.1 kmSSE (150°)9.3 km/hPartly Cloudy
7:53 PM24.4 °C16.1 °C60 %1016.9 hPa16.1 kmSSE (150°)9.3 km/hClear
8:53 PM22.8 °C16.1 °C66 %1017.3 hPa16.1 kmSSE (150°)5.6 km/hClear
9:53 PM21.1 °C16.7 °C76 %1017.6 hPa16.1 kmSSE (160°)7.4 km/hClear
10:53 PM20.6 °C16.7 °C78 %1017.9 hPa16.1 kmSSE (160°)7.4 km/hClear
11:53 PM20.6 °C16.1 °C75 %1018.3 hPa16.1 kmSSE (160°)5.6 km/hClear
Hourly data recorded from KCPS, located 0 kilometers away from St. Louis - Saint Louis University, Missouri







STORIES FROM OUR PARTNERS